Location: Eastchurch
(51.4000°N, 0.8667°E)
Time: 23:40:50
(UTC+00:00)

Cosmos 1339 Rocket - Pass Details

Date: 19 January 2026
Orbit: 941 x 1006 km, 82.9° (Epoch: 18 February)

Event Time Altitude Azimuth Distance (km) Brightness Sun altitude
Rises 18:39:05 0° 190° (S) 3,640 7.7 -20.5°
Reaches altitude 10° 18:41:35 10° 191° (SSW) 2,689 7.0 -20.9°
Maximum altitude 18:47:45 83° 279° (W) 966 4.5 -21.9°
Drops below altitude 10° 18:53:53 10° 9° (N) 2,675 6.7 -22.8°
Sets 18:56:22 0° 10° (N) 3,621 7.3 -23.2°
